AO-07 1 07530U 74089B 15099.21091622 -.00000019 00000-0 15184-3 0 9993 2 07530 101.5144 076.7397 0012422 077.8852 352.4210 12.53613254848616 FO-29 1 24278U 96046B 15099.46675700 -.00000000 00000-0 38536-4 0 9997 2 24278 098.5336 077.5767 0349453 248.9416 227.9974 13.53048963920733 SO-33 1 25509U 98061B 15099.87540098 .00000991 00000-0 18066-3 0 9993 2 25509 031.4326 278.8584 0348095 194.5110 164.5298 14.29954730859634 RS-22 1 27939U 03042A 15099.89231599 .00001071 00000-0 20394-3 0 9999 2 27939 097.8333 264.8567 0012135 243.6029 116.3938 14.65926711616186 HO-68 1 36122U 09072B 15099.68610237 -.00000060 00000-0 -43517-4 0 9991 2 36122 100.2027 146.9125 0006893 277.2289 082.8048 13.16325633255442 AO-73 1 39444U 13066AE 15099.13830751 .00001958 00000-0 25835-3 0 9991 2 39444 097.7371 164.4176 0060046 002.2710 357.8764 14.79938291 73202 EO-79 1 40025U 14033R 15099.71540493 .00003050 00000-0 34748-3 0 9996 2 40025 097.9574 359.8706 0014523 051.3022 308.9467 14.86844991 43626 UO-11 1 14781U 84021B 15099.38475541 .00000757 00000-0 10130-3 0 9994 2 14781 097.8091 158.1381 0007283 300.0669 059.9822 14.82277580671832 AO-16 1 20439U 90005D 15099.14227986 .00000205 00000-0 91586-4 0 9995 2 20439 098.5364 036.3682 0011097 011.1581 104.1655 14.32517825316851 LO-19 1 20442U 90005G 15099.13486932 .00000186 00000-0 84325-4 0 9997 2 20442 098.5074 036.1262 0011780 358.9307 001.1850 14.32711976317051 AO-27 1 22825U 93061C 15099.43555464 .00000144 00000-0 73169-4 0 9997 2 22825 098.7021 049.5527 0009020 143.7375 004.1694 14.29858918123118 IO-26 1 22826U 93061D 15099.47860626 .00000177 00000-0 85719-4 0 9991 2 22826 098.6967 049.7719 0009667 136.5434 223.6511 14.30173567123269 GO-32 1 25397U 98043D 15099.45095557 .00000087 00000-0 56718-4 0 9990 2 25397 098.5129 052.0739 0001887 129.5648 017.7450 14.23532400870011 NO-44 1 26931U 01043C 15099.34433278 .00000150 00000-0 89757-4 0 9993 2 26931 067.0532 354.6723 0006205 264.1672 095.8722 14.30287797705954 SO-50 1 27607U 02058C 15099.95138669 .00001953 00000-0 27749-3 0 9998 2 27607 064.5565 047.1363 0077940 301.6629 057.7385 14.74609753661221 CO-55 1 27844U 03031E 15099.52111958 .00000289 00000-0 15134-3 0 9994 2 27844 098.6972 109.0253 0010587 134.6634 342.5749 14.21758060610685 CO-57 1 27848U 03031J 15099.60023949 .00000243 00000-0 13123-3 0 9995 2 27848 098.7068 108.9748 0010378 141.1391 006.7107 14.21411034610600 AO-51 1 28375U 04025K 15099.39091198 .00000207 00000-0 74058-4 0 9997 2 28375 098.2872 041.8342 0082824 176.5299 183.6483 14.41623933566576 CP3 1 31129U 07012N 15099.47701940 .00000861 00000-0 19515-3 0 9991 2 31129 097.9740 068.2552 0097098 167.0488 309.4002 14.55640701423122 CO-65 1 32785U 08021C 15099.20225699 .00001687 00000-0 19583-3 0 9996 2 32785 097.6573 145.2876 0012063 297.0219 156.2187 14.86616160375980 PRISM 1 33493U 09002B 15099.80152140 .00005421 00000-0 53055-3 0 9991 2 33493 098.2522 293.8876 0016287 190.4440 169.6417 14.92661919336375 SOHLA-1 1 33496U 09002E 15099.21150321 .00000611 00000-0 10726-3 0 9992 2 33496 098.2011 226.5528 0006853 033.5119 012.7159 14.71280854333039 TISAT-1 1 36799U 10035E 15099.84925303 .00003464 00000-0 38243-3 0 9991 2 36799 098.0120 199.4662 0014194 074.4147 045.8758 14.88051895256794 STUDSAT 1 36801U 10035G 15099.31980552 .00021295 00000-0 13492-2 0 9994 2 36801 098.0546 215.1242 0004929 019.8972 037.8181 15.08965869257570 ALMASAT-1 1 38078U 12006B 15099.19253231 .00062436 38629-5 10864-2 0 9990 2 38078 069.4587 053.8846 0500345 352.4302 006.9468 14.73661974164852 CUBEBUG-1 1 39153U 13018D 15099.35420656 .00001754 00000-0 24394-3 0 9991 2 39153 098.0183 183.9225 0018697 114.5663 245.7499 14.78991200105309 ESTCUBE-1 1 39161U 13021C 15099.77560963 .00001752 00000-0 29359-3 0 9990 2 39161 098.0730 183.3052 0010086 165.0871 195.0613 14.70982940103186 DUCHIFAT-1 1 40021U 14033M 15099.71144064 .00004307 00000-0 47929-3 0 9997 2 40021 097.9604 000.0969 0015105 052.9119 307.3470 14.87578949 43628 NANOSATCBR1 1 40024U 14033Q 15099.68354167 .00003525 00000-0 39696-3 0 9996 2 40024 097.9598 359.9167 0014166 052.7599 307.4888 14.87219512 43616 DTUSAT-2 1 40030U 14033W 15099.65587033 .00002916 00000-0 33575-3 0 9993 2 40030 097.9564 359.6020 0013452 046.4983 313.7304 14.86457050 43607 ANTELSAT 1 40034U 14033AA 15099.89109015 .00002410 00000-0 37700-3 0 9996 2 40034 097.9525 353.4197 0060298 339.8307 020.0515 14.72484947 43246 MET-2/21 1 22782U 93055A 15099.10917774 .00000044 00000-0 26417-4 0 9995 2 22782 082.5467 298.4907 0022918 152.1211 325.6019 13.83765166 91045 OKEAN-4 1 23317U 94066A 15099.17158988 .00001124 00000-0 12396-3 0 9994 2 23317 082.5380 150.2519 0019910 193.8921 251.1153 14.86499895107065 NOAA-14 1 23455U 94089A 15098.51098177 .00000050 00000-0 49364-4 0 9995 2 23455 098.7539 181.3899 0008390 279.7725 200.9000 14.14032076 45682 NOAA-15 1 25338U 98030A 15098.74386855 .00000308 00000-0 13016-3 0 9995 2 25338 098.7716 097.3425 0010979 016.0180 344.1821 14.25594732879260 RESURS 1 25394U 98043A 15099.52399775 .00000019 00000-0 26467-4 0 9997 2 25394 098.4581 057.1100 0002492 102.7378 010.3459 14.24451208870502 FENGYUN1 1 25730U 99025A 15099.51441925 .00001690 00000-0 92566-3 0 9994 2 25730 098.9402 064.4198 0019688 349.2080 119.5266 14.13160009819352 OKEAN-0 1 25860U 99039A 15099.03209259 .00000880 00000-0 13557-3 0 9995 2 25860 098.0871 067.0000 0001475 109.9170 293.8154 14.75931986845780 NOAA-16 1 26536U 00055A 15098.77575063 .00000187 00000-0 99931-4 0 9996 2 26536 098.9486 164.7994 0011420 070.5878 289.7004 14.13087006750014 NOAA-17 1 27453U 02032A 15098.77036468 .00000092 00000-0 39614-4 0 9990 2 27453 098.3361 088.2204 0012467 031.8566 328.3844 14.24868799664776 NOAA-18 1 28654U 05018A 15098.77020396 .00000226 00000-0 12321-3 0 9998 2 28654 099.1808 089.7346 0014542 151.7488 208.4948 14.12174508509304 NOAA-19 1 33591U 09005A 15098.79007391 .00000264 00000-0 14439-3 0 9990 2 33591 098.9826 048.5289 0014585 009.8355 350.3585 14.11906532317703 HUBBLE 1 20580U 90037B 15099.51087883 .00003025 00000-0 18479-3 0 9990 2 20580 028.4694 246.9143 0002697 212.8408 216.0458 15.07147080169430 ISS 1 25544U 98067A 15099.92419816 .00013542 00000-0 20112-3 0 9998 2 25544 051.6471 065.0567 0005994 196.8524 211.2958 15.55499170937415 CO-58 1 28895U 05043F 15099.51273452 .00001029 00000-0 21060-3 0 9991 2 28895 097.8227 290.8750 0017810 150.5043 209.7168 14.62645870503559 FALCON 1 30776U 07006E 15099.39787572 .00010096 00000-0 42257-3 0 9997 2 30776 035.4277 071.9206 0001524 332.0179 162.5785 15.22854573445802 MAST 1 31126U 07012K 15099.49322266 .00000662 00000-0 15237-3 0 9996 2 31126 097.9540 070.6788 0091809 149.3536 325.6415 14.55931260423497 CAPE1 1 31130U 07012P 15099.15831765 .00000845 00000-0 19299-3 0 9998 2 31130 097.9757 067.4422 0097700 169.8572 190.4628 14.55329546422844 COMPASS 1 32787U 08021E 15099.39733481 .00002881 00000-0 30217-3 0 9995 2 32787 097.6588 149.1723 0011697 281.8970 078.0936 14.90246733376264 AAUSAT2 1 32788U 08021F 15099.10285571 .00003383 00000-0 34537-3 0 9994 2 32788 097.6598 150.2850 0011062 279.7863 080.2106 14.91234422376305 DO-64 1 32789U 08021G 15099.18322799 .00007068 00000-0 59194-3 0 9997 2 32789 097.6780 160.2618 0009900 248.6341 177.5872 14.98697123376742 CO-66 1 32791U 08021J 15099.12568475 .00002193 00000-0 24199-3 0 9998 2 32791 097.6585 146.9583 0012470 289.5995 070.3876 14.88407532376044 RS-30 1 32953U 08025A 15099.82273685 .00000010 00000-0 -13620-7 0 9993 2 32953 082.5077 016.7543 0017670 228.7077 131.2484 12.43058416312118 METEOR-M 1 35865U 09049A 15099.74592247 .00000171 00000-0 96506-4 0 9992 2 35865 098.5071 142.5148 0001967 340.0369 020.0732 14.22010005288481 RS-38 1 35869U 09049E 15099.93273647 .00000087 00000-0 58041-4 0 9995 2 35869 098.4992 142.3596 0004087 323.0423 037.0470 14.22283998288557 JUGNU 1 37839U 11058B 15099.54842185 .00000474 00000-0 11105-3 0 9992 2 37839 019.9610 258.6223 0019118 010.1587 052.1028 14.12445700180508 SRMSAT 1 37841U 11058D 15099.53026319 .00000425 00000-0 88954-4 0 9990 2 37841 019.9719 284.0352 0011798 298.4512 096.7996 14.10461975180241 RAX-2 1 37853U 11061D 15099.11670851 .00006431 00000-0 40405-3 0 9998 2 37853 101.7150 276.2590 0199689 277.2876 193.9561 14.94891005186780 AUBIESAT 1 37854U 11061E 15099.12074175 .00007216 00000-0 43266-3 0 9997 2 37854 101.7186 279.3846 0196000 272.3441 206.9607 14.96870807186882 HRBE 1 37855U 11061F 15099.12279217 .00006249 00000-0 38381-3 0 9999 2 37855 101.7214 278.1779 0198783 275.0073 082.8470 14.95807786186826 HORYU-2 1 38340U 12025D 15099.15535215 .00002067 00000-0 32225-3 0 9991 2 38340 098.3069 067.3457 0011092 322.4269 037.6163 14.74026783155366 RS-40 1 38735U 12041C 15099.59112904 .00000040 00000-0 21992-3 0 9999 2 38735 082.4726 102.7535 0016307 334.3227 025.7041 12.42567637122390 PROITERES 1 38756U 12047B 15099.58345110 .00001318 00000-0 20045-3 0 9991 2 38756 098.2171 197.7253 0012872 152.5147 207.6742 14.75687912138884 BEESAT-3 1 39134U 13015E 15099.48030156 .00008157 00000-0 49077-3 0 9992 2 39134 064.8733 277.1695 0033535 260.4878 099.2454 15.10973685108315 BEESAT-2 1 39136U 13015G 15099.46529279 .00006936 00000-0 43565-3 0 9990 2 39136 064.8738 279.0878 0034014 259.9601 099.7683 15.09544682108280 ZACUBE-1 1 39417U 13066B 15099.15065124 .00001614 00000-0 21644-3 0 9990 2 39417 097.7367 164.2442 0060642 002.8721 357.2828 14.79463030 74425 TRITON-1 1 39427U 13066M 15099.29978303 .00001396 00000-0 23603-3 0 9992 2 39427 097.7229 154.0816 0116730 027.7743 332.9629 14.66461583 73778 DELFIN3XT 1 39428U 13066N 15099.44758738 .00002301 00000-0 39013-3 0 9997 2 39428 097.7224 152.6583 0125525 031.7374 329.1318 14.65068985 73676 GOMX-1 1 39430U 13066Q 15099.85665701 .00001974 00000-0 37388-3 0 9990 2 39430 097.7171 147.8796 0155137 045.4279 315.9435 14.57876163 73422 MO-76 1 39436U 13066W 15099.45656359 .00020358 00000-0 15002-2 0 9996 2 39436 097.7497 175.3613 0021894 337.7507 022.2766 15.03160621 75150 LO-74 1 39440U 13066AA 15099.38798129 .00001474 00000-0 21835-3 0 9995 2 39440 097.7316 160.3882 0082519 011.2218 349.0806 14.74304742 74190 PUCPSAT-1 1 39442U 13066AC 15099.17822714 .00002178 00000-0 23992-3 0 9990 2 39442 097.7439 170.7797 0032914 353.4706 006.6078 14.88181155 73603 SPROUT 1 39770U 14029E 15099.32729752 .00001405 00000-0 17658-3 0 9993 2 39770 097.8675 197.1068 0011114 069.9647 290.2734 14.83617977 47428 POPSAT-HIP1 1 40028U 14033U 15099.74716856 .00002814 00000-0 32217-3 0 9996 2 40028 097.9618 359.9651 0015864 049.7761 310.4837 14.86693172 43619 EO-80 1 40032U 14033Y 15099.66167178 .00002739 00000-0 31606-3 0 9996 2 40032 097.9571 359.6223 0014033 045.3176 314.9094 14.86411570 43606 VELOX-1 1 40057U 14034E 15099.85398298 .00002937 00000-0 43868-3 0 9997 2 40057 098.2192 176.8401 0012831 097.9418 262.3223 14.75513407 41809 DAURIA DX 1 1 40071U 14037C 15099.79085991 .00001379 00000-0 18868-3 0 9993 2 40071 098.3621 168.3776 0009943 098.4913 261.7401 14.80239625 40678 UKUBE-1 1 40074U 14037F 15099.77175232 .00002866 00000-0 36958-3 0 9994 2 40074 098.3632 168.9306 0006137 106.5559 253.6298 14.81867153 40709 HODOYOSHI-1 1 40299U 14070B 15099.77742559 .00004982 00000-0 24291-3 0 9990 2 40299 097.4579 182.1655 0013473 018.1559 096.8322 15.18696728 23437 CHUBUSAT-1 1 40300U 14070C 15099.78144628 .00005642 00000-0 28778-3 0 9995 2 40300 097.4554 181.6611 0022924 015.8560 098.5273 15.16910819 23405 QSAT-EOS 1 40301U 14070D 15099.78356169 .00010160 00000-0 52897-3 0 9991 2 40301 097.4520 181.1433 0033155 014.9267 100.4606 15.15726363 23375 TSUBAME 1 40302U 14070E 15099.73755913 .00005090 00000-0 29173-3 0 9994 2 40302 097.4490 180.3980 0044022 016.5045 098.3036 15.12200836 23323 FIREBIRD FU3 1 40377U 15003B 15099.58468446 .00012397 00000-0 63399-3 0 9994 2 40377 099.1261 120.4188 0163225 117.8374 243.9415 15.05914580 10226 FIREBIRD FU4 1 40378U 15003C 15099.84925057 .00011901 00000-0 60740-3 0 9997 2 40378 099.1244 120.7340 0163639 116.9844 244.8161 15.05942579 10263 GRIFEX 1 40379U 15003D 15099.86029179 .00010544 00000-0 54619-3 0 9990 2 40379 099.1253 120.7264 0163193 118.0688 243.7087 15.05552159 10269 LAMBDA-SAT 1 40458U 98067GB 15099.91196037 .00212545 00000-0 18327-2 0 9993 2 40458 051.6379 063.5064 0009350 169.5080 224.4770 15.68006537 15399 /EX